This is the latest recevied weather packets stored in our database for station/object WA0LM. If no packets are shown the sender has not sent any weather packets the latest 10 day(s).
| Time | Temp. | Humidity | Pressure | Rain* | Wind** | Luminosity | Snow |
|---|---|---|---|---|---|---|---|
| 1777675781 | 10.56° C | 40% | 1016.7 hPa | 0 mm | - | 77 W/m² | - |
| 1777675479 | 11.11° C | 38% | 1016.5 hPa | 0 mm | - | 97 W/m² | - |
| 1777675176 | 11.11° C | 40% | 1016.5 hPa | 0 mm | - | 99 W/m² | - |
| 1777674872 | 11.11° C | 39% | 1016.7 hPa | 0 mm | - | 103 W/m² | - |
| 1777674568 | 11.11° C | 40% | 1016.6 hPa | 0 mm | - | 100 W/m² | - |
| 1777674266 | 10.56° C | 43% | 1016.5 hPa | 0 mm | - | 100 W/m² | - |
| 1777673962 | 10.56° C | 41% | 1016.6 hPa | 0 mm | - | 89 W/m² | - |
| 1777673659 | 10.56° C | 41% | 1016.4 hPa | 0 mm | - | 86 W/m² | - |
| 1777673357 | 10.56° C | 41% | 1016.5 hPa | 0 mm | - | 94 W/m² | - |
| 1777673054 | 11.11° C | 44% | 1016.5 hPa | 0 mm | - | 94 W/m² | - |
| 1777672750 | 11.11° C | 39% | 1016.7 hPa | 0 mm | - | 154 W/m² | - |
| 1777672447 | 11.67° C | 37% | 1016.6 hPa | 0 mm | - | 155 W/m² | - |
| 1777672143 | 11.67° C | 38% | 1016.7 hPa | 0 mm | - | 559 W/m² | - |
| 1777671843 | 11.67° C | 40% | 1016.7 hPa | 0 mm | - | 599 W/m² | - |
| 1777671539 | 11.11° C | 39% | 1016.6 hPa | 0 mm | - | 427 W/m² | - |
| 1777671236 | 11.67° C | 37% | 1016.6 hPa | 0 mm | - | 641 W/m² | - |
| 1777670931 | 11.11° C | 44% | 1016.8 hPa | 0 mm | - | 355 W/m² | - |
| 1777670628 | 11.11° C | 39% | 1016.7 hPa | 0 mm | - | 657 W/m² | - |
| 1777670325 | 10.56° C | 38% | 1016.6 hPa | 0 mm | - | 243 W/m² | - |
| 1777670023 | 12.78° C | 41% | 1016.8 hPa | 0 mm | - | 375 W/m² | - |
| 1777669720 | 12.78° C | 35% | 1016.7 hPa | 0 mm | - | 261 W/m² | - |
| 1777669417 | 12.22° C | 35% | 1016.8 hPa | 0 mm | - | 700 W/m² | - |
| 1777669113 | 11.67° C | 36% | 1016.9 hPa | 0 mm | - | 698 W/m² | - |
| 1777668810 | 11.11° C | 36% | 1016.8 hPa | 0 mm | - | 169 W/m² | - |
| 1777668507 | 10.56° C | 45% | 1016.8 hPa | 0 mm | - | 678 W/m² | - |
* Rain latest hour (hover to see other rain measurements)
** Current wind speed in m/s (hover to see current wind gust speed)